Regional Weather Roundup
Issued by NWS

Home | Current Version | Previous Version | Text Only | Print | Product List | Glossary On
Versions: 1 2 3 4 5 6 7 8 9 10 11 12 13 14 15 16 17 18 19 20 21 22 23 24 25 26 27 28 29 30 31 32 33 34 35 36 37 38 39 40 41 42 43 44 45 46 47 48 49 50
000
ASUS43 KMPX 310910
RWRMN
WEATHER ROUNDUP FOR MINNESOTA
NATIONAL WEATHER SERVICE TWIN CITIES/CHANHASSEN MN
400 AM CDT WED AUG 31 2016


NOTE: "FAIR" INDICATES FEW OR NO CLOUDS BELOW 12,000 FEET WITH NO
SIGNIFICANT WEATHER AND/OR OBSTRUCTIONS TO VISIBILITY. N/A MEANS
CURRENT SKY AND/OR WEATHER CONDITIONS ARE NOT AVAILABLE.

MNZ060>063-068>070-311000-
   Twin Cities Metro

CITY           SKY/WX    TMP DP  RH WIND       PRES   REMARKS
TWIN CITIES    CLEAR     61  54  77 CALM      30.19S
ST PAUL        CLEAR     60  55  83 CALM      30.20R
CRYSTAL        CLEAR     55  51  86 CALM      30.19R
BLAINE         CLEAR     57  55  94 CALM      30.20S
LAKEVILLE      CLEAR     54  54 100 CALM      30.20S
EDEN PRAIRIE   CLEAR     60  55  83 N5        30.19R
LAKEVILLE      CLEAR     54  54 100 CALM      30.20S
SOUTH ST PAUL  CLEAR     59  56  92 CALM      30.19S
LAKE ELMO      FAIR      54  54 100 CALM      30.21R FOG
$$
MNZ001>005-007-008-013>017-022>024-027-028-311000-
   Northwest Minnesota

CITY           SKY/WX    TMP DP  RH WIND       PRES   REMARKS
BEMIDJI        CLEAR     47  46  98 CALM      30.23S
HALLOCK        CLEAR     50  46  87 N5        30.25R
ROSEAU         PTCLDY    50  45  81 CALM      30.25R
WARROAD        CLEAR     52  48  87 NW3       30.25R
THIEF RVR FALL CLEAR     56  50  80 NE7       30.24F
CROOKSTON      PTCLDY    54  52  94 NE3       30.23S
FOSSTON        CLEAR     48  46  93 CALM      30.24S
DETROIT LAKES  CLEAR     57  54  88 CALM      30.24S
MOORHEAD       CLEAR     54  52  94 CALM      30.23S
MAHNOMEN       FAIR      53  52  97 CALM      30.23S
$$
MNZ006-009>011-018-025>026-311000-
   North Central Minnesota

CITY           SKY/WX    TMP DP  RH WIND       PRES   REMARKS
BAUDETTE       CLEAR     49  47  93 W3        30.23R
FLAG ISLAND    CLEAR     61  54  77 NW3       30.22S
INTL FALLS     PTCLDY    44  42  93 CALM      30.21R
WASKISH        PTCLDY    46  45  93 CALM      30.23S
BIG FORK       CLEAR     45  43  93 CALM      30.22S FOG
LONGVILLE      CLEAR     48  48 100 CALM      30.21F FOG
GRAND RAPIDS   FOG       50  48  93 CALM      30.23S VSB 1
CRANE LAKE     PTCLDY    45  43  93 CALM      30.21S
ORR            PTCLDY    46  45  93 CALM      30.19R
COOK           PTCLDY    45  45 100 CALM      30.21R
WALKER         FAIR      51  50  99 CALM      30.22S
$$
MNZ012-019>021-037-311000-
   Northeast Minnesota

CITY           SKY/WX    TMP DP  RH WIND       PRES   REMARKS
DULUTH         CLEAR     53  49  86 N6        30.19S
ELY            MOCLDY    46  45  93 CALM      30.20R
HIBBING        PTCLDY    42  42 100 CALM      30.21R FOG
EVELETH        PTCLDY    45  44  97 CALM      30.21S
DULUTH HARBOR  CLEAR     57  54  88 S5        30.18S
TWO HARBORS    CLEAR     54  48  82 CALM      30.16F
SILVER BAY     CLEAR     48  48 100 CALM      30.16F
GRAND MARAIS     N/A     61  52  72 N10G17    30.14S
G MARAIS ARPRT CLEAR     46  43  87 NW3       30.19S
$$
MNZ029>031-032-039>041-046>048-054>057-064-311000-
   West Central Minnesota

CITY           SKY/WX    TMP DP  RH WIND       PRES   REMARKS
FERGUS FALLS   CLEAR     59  54  82 E5        30.23F
WHEATON        CLEAR     55  55 100 CALM      30.23S
MORRIS         CLEAR     55  54  94 E5        30.21S
ALEXANDRIA     CLEAR     59  54  83 E3        30.24R
ELBOW LAKE     FAIR      60  58  96 CALM      30.22S
GLENWOOD       CLEAR     55  54  94 NE5       30.23S
APPLETON       CLEAR     55  54  94 CALM      30.21S
BENSON         CLEAR     54  50  87 CALM      30.21F
ORTONVILLE     CLEAR     59  54  82 CALM      30.22S
MADISON        CLEAR     57  55  94 CALM      30.21S
WILLMAR        FAIR      57  55  94 NE3       30.23S
$$
MNZ033>034-036-042>043-049>051-058-059-311000-
   Central Minnesota

CITY           SKY/WX    TMP DP  RH WIND       PRES   REMARKS
ST CLOUD       CLEAR     53  53 100 CALM      30.21R
SAUK CENTRE    FAIR      54  53  99 CALM      30.23S
PAYNESVILLE    CLEAR     51  51 100 CALM      30.23S FOG
AITKIN         CLEAR     48  45  87 CALM      30.20S FOG
PINE RIVER     CLEAR     50  50 100 CALM      30.25R
BRAINERD       CLEAR     51  51 100 CALM      30.22S
STAPLES        CLEAR     54  52  94 CALM      30.23R
LONG PRAIRIE   FAIR      52  52 100 CALM      30.23R
LITTLE FALLS   CLEAR     52  50  93 CALM      30.22R
LITCHFIELD     CLEAR     61  57  88 CALM      30.22S
BUFFALO        CLEAR     56  53  87 CALM      30.21S
MAPLE LAKE     CLEAR     56  55  98 CALM      30.22S
HUTCHINSON     CLEAR     56  56  99 CALM      30.22S FOG
$$
MNZ037-044-045-052-053-311000-
   East Central Minnesota

CITY           SKY/WX    TMP DP  RH WIND       PRES   REMARKS
PRINCETON      CLEAR     52  52 100 CALM      30.21R
MORA           CLEAR     52  50  93 CALM      30.22S
CAMBRIDGE      CLEAR     55  50  82 CALM      30.19R
RUSH CITY      MOCLDY    50  49  95 CALM      30.20S
MOOSE LAKE     CLEAR     48  46  93 CALM      30.18S
HINCKLEY       FAIR      52  52 100 CALM      30.19F
CLOQUET        CLEAR     48  46  93 NW6       30.19S
MCGREGOR       CLEAR     48  46  93 CALM      30.21S
$$
MNZ071>073-080-081-089-090-097-098-311000-
   Southwest Minnesota

CITY           SKY/WX    TMP DP  RH WIND       PRES   REMARKS
MONTEVIDEO     CLEAR     57  54  88 CALM      30.23S
GRANITE FALLS  CLEAR     56  55  95 S3        30.23R
CANBY          CLEAR     56  54  92 CALM      30.23S
MARSHALL       CLEAR     56  54  93 W3        30.22S
REDWOOD FALLS  PTCLDY    59  56  89 CALM      30.21R
OLIVIA         CLEAR     59  55  88 CALM      30.21S
WINDOM         CLEAR     57  54  88 CALM      30.22S
WORTHINGTON    CLEAR     56  54  93 N3        30.23S
JACKSON        CLEAR     55  54  94 NW3       30.22S FOG
TRACY          CLEAR     60  56  89 CALM      30.22F
SLAYTON        CLEAR     54  54 100 NW5       30.24R
$$
MNZ065>067-074>077-082>085-091>093-311000-
   South Central Minnesota

CITY           SKY/WX    TMP DP  RH WIND       PRES   REMARKS
NEW ULM        CLEAR     57  57 100 N45G104   30.21S
ST JAMES       CLEAR     55  55 100 CALM      30.22S
FAIRMONT       CLEAR     56  55  97 NW3       30.21S
GLENCOE        CLEAR     58  58  99 CALM      30.20S
FARIBAULT      CLEAR     54  52  94 CALM      30.20S
OWATONNA       FOG       54  52  94 CALM      30.20S VSB 1/2
WASECA         CLEAR     54  52  94 CALM      30.21S
ALBERT LEA     CLOUDY    55  55 100 CALM      30.20S
$$
MNZ078>079-086>088-094>096-311000-
   Southeast Minnesota

CITY           SKY/WX    TMP DP  RH WIND       PRES   REMARKS
ROCHESTER      CLEAR     56  55  97 NW6       30.19S
RED WING       CLEAR     55  54  94 CALM      30.18R
STANTON        CLEAR     54  54 100 CALM      30.18S
DODGE CENTER   PTCLDY    55  54  94 N6        30.19F
WINONA         CLEAR     59  57  94 NW3       30.17S
AUSTIN         CLOUDY    57  54  88 CALM      30.19S
PRESTON        CLOUDY    56  54  90 N6        30.19S
$$
ABBREVIATIONS USED IN REMARKS
   TC - TEMPERATURES IN CELSIUS
  WCI - WIND CHILL INDEX
   HX - HEAT INDEX
  VSB - VISIBILITY
$$



USA.gov is the U.S. government's official web portal to all federal, state and local government web resources and services.